AMAZONAS 2

Last updated on Thu Jul 03 2025 00:02:45 GMT+0000 (Coordinated Universal Time)

1 35942U 09054A 25183.57222098 -.00000275 00000+0 00000+0 0 9998 2 35942 0.9093 88.1475 0003464 23.5256 314.3587 1.00269839 57673
UTC large
Height (km)
Speed (km/s)
/
Latitude / Longitude
Inclination (degrees)
Orbital Period (minutes)
Azimuth
Elevation
Range (km)
Doppler Factor

Next 0 passes for location: London (51.5072 / 0.1276)

Sorry there are no passes over London.